ATLAS 5 CENTAUR DEB, 47096

Orbit data source: Space-Track

ATLAS 5 CENTAUR DEB, 47096 is space debris in HEO originally from a launch on Wed, 17 Sep 2014 UTC launched from the Air Force Eastern Test Range (AFETR). Debris objects in space refer to the collection of defunct objects orbiting the Earth. Examples of debris include non-operational satellites, rocket bodies, and fragments generated from explosions, collisions, or faulty payload assembly.

Loading next visibility...
Identifier
47096, 2014-055DE
Orbit
HEO
Last TLE update
4 days ago
Origin
Flag of USUnited Launch Alliance/Lockheed Martin (US)
Manufacturer
Unknown
Mission
Spacecraft
Bus & Motor
Unknown
Mass
Unknown
Launch date (UTC)
2014-09-17 (11 years ago)
Launch vehicle
Unknown
Launch site
Air Force Eastern Test Range (AFETR)
Object type
Payload
Rocket body
Debris
Shape & HBR
Unknown
Radar Cross Section
RCS unknown

Expand to show TLE details & history

TLE from 4 days ago
0 ATLAS 5 CENTAUR DEB
1 47096U 14055DE  25187.85834493 -.00000016  00000-0  00000-0 0  9996
2 47096  19.3381 199.7532 4891917  67.9313 336.1859  1.79152370 30932
Epoch: 2025-07-06T20:36Z
TLE epoch observation values (Epoch: 2025-07-06T20:36:01.001Z)
Latitude
-0°
Longitude
-34.32614°
Altitude
11,999.077 km
Speed
5.428 km/s
True Right ascension
13h 19m 00s
True Declination
0° 00' 00"
Sunlit
Object was in daylight at epoch
Visualization orbit readout
Latitude
-18.90307°
Longitude
-137.18991°
Altitude
35,737.606 km
Speed
2.239 km/s
Apparent Right ascension
06h 07m 39s
Apparent Declination
-22° 17' 51"
Sunlit
Object is in daylight
Visualization observer readout
Local Sidereal Time
15:08:06
Azimuth
281.229° WNW
Elevation
-48.266°
Doppler factor
1
Orbital elements
Apogee altitude
36,270.031 km
Perigee altitude
8,250.63 km
Semi-major axis
28,638.468 km
Eccentricity
0.48919
Inclination
19.3381°
RAAN
199.7532°
Arg. of periapsis
67.9313°
True anomaly
Unknown
Mean anomaly
336.1859°
Eccentric anomaly
Unknown
Mean motion
0.44784 °/min
Orbital period
803.87 mins
BSTAR
0
Loading maneuver chart data...
Loading SW <> Apogee altitude chart data...

ATLAS 5 CENTAUR DEB Visibility forecast

Observer location: undefined°, undefined°

Span
Click to sort rows by Start time (UTC) header in descending order
Start Az.
Max El. time (UTC)
Max El. Az.
Max El.
End time (UTC)
End Az.
737 mins2025-07-11 08:32:28.857Z261.33° W2025-07-11 09:16:28.857Z188.301° SSW38.771°2025-07-11 20:49:28.857Z125.271° SE
|